Weather History for Spokane Felts, WA

Change the Weather History Date:

Sunday, July 28, 2013

  Actual Average Record
Temperature  
Mean Temperature 70 °F 72 °F  
Max Temperature 86 °F 88 °F 100 °F (1996)
Min Temperature 54 °F 56 °F 51 °F (2011)
Degree Days  
Heating Degree Days 0 0  
Month to date heating degree days 0 18  
Since 1 June heating degree days 105 136  
Since 1 July heating degree days 0 18  
Cooling Degree Days 5 7  
Month to date cooling degree days 259 151  
Year to date cooling degree days 342 198  
Since 1 June cooling degree days 316 191  
Growing Degree Days 20 (Base 50)    
Moisture  
Dew Point 38 °F    
Average Humidity 38    
Maximum Humidity 61    
Minimum Humidity 14    
Precipitation  
Precipitation 0.00 in 0.02 in 0.03 in (2001)
Month to date precipitation T 0.78  
Year to date precipitation 7.96 10.00  
Sea Level Pressure  
Sea Level Pressure 29.82 in    
Wind  
Wind Speed 3 mph (WSW)    
Max Wind Speed 12 mph    
Max Gust Speed 17 mph    
Visibility 10 miles    
Events      
T = Trace of Precipitation, MM = Missing Value Source: NWS Daily Summary

Daily Weather History Graph

Daily Weather History Graph

Search for Another Location

Airport:

Trip Planner

Search our weather history database for the weather conditions in past years. The results will help you decide how hot, cold, wet, or windy it might be!

Date:

Astronomy

Jul. 28, 2013 Rise Set
Actual Time 5:21 AM PDT 8:28 PM PDT
Civil Twilight 4:45 AM PDT 9:05 PM PDT
Nautical Twilight 3:57 AM PDT 9:52 PM PDT
Astronomical Twilight 2:58 AM PDT 10:51 PM PDT
Moon 11:17 PM PDT (7/28) 12:43 PM PDT (7/28)
Length of Visible Light 16h 20m
Length of Day
15h 06m
Waning Gibbous, 60% of the Moon is Illuminated
Jul 28
Waning Gibbous
Jul 29
Last Quarter
Aug 6
New
Aug 14
First Quarter
Aug 20
Full

Hourly Weather History & Observations

Time (PDT) Temp. Dew Point Humidity Pressure Visibility Wind Dir Wind Speed Gust Speed Precip Events Conditions
12:53 AM 60.1 °F 39.9 °F 47% 29.82 in 10.0 mi Calm Calm - N/A   Clear
1:53 AM 59.0 °F 39.0 °F 48% 29.81 in 10.0 mi Calm Calm - N/A   Clear
2:53 AM 57.9 °F 37.0 °F 46% 29.81 in 10.0 mi ENE 4.6 mph - N/A   Clear
3:53 AM 57.0 °F 37.0 °F 47% 29.83 in 10.0 mi Calm Calm - N/A   Clear
4:53 AM 55.0 °F 39.0 °F 55% 29.83 in 10.0 mi Calm Calm - N/A   Clear
5:53 AM 55.0 °F 42.1 °F 62% 29.84 in 10.0 mi Calm Calm - N/A   Clear
6:53 AM 62.1 °F 41.0 °F 46% 29.86 in 10.0 mi Calm Calm - N/A   Clear
7:53 AM 66.0 °F 41.0 °F 40% 29.86 in 10.0 mi Variable 3.5 mph - N/A   Clear
8:53 AM 69.1 °F 39.9 °F 35% 29.86 in 10.0 mi SW 9.2 mph - N/A   Clear
9:53 AM 72.0 °F 39.9 °F 31% 29.86 in 10.0 mi SW 9.2 mph - N/A   Clear
10:53 AM 73.9 °F 42.1 °F 32% 29.86 in 10.0 mi SW 6.9 mph - N/A   Clear
11:53 AM 77.0 °F 41.0 °F 28% 29.86 in 10.0 mi Variable 5.8 mph - N/A   Clear
12:53 PM 80.1 °F 39.9 °F 24% 29.84 in 10.0 mi Variable 5.8 mph - N/A   Clear
1:53 PM 82.0 °F 42.1 °F 24% 29.83 in 10.0 mi North 6.9 mph - N/A   Clear
2:53 PM 84.0 °F 37.9 °F 19% 29.81 in 10.0 mi Variable 6.9 mph - N/A   Clear
3:53 PM 84.9 °F 36.0 °F 17% 29.80 in 10.0 mi Variable 4.6 mph - N/A   Clear
4:53 PM 86.0 °F 32.0 °F 14% 29.78 in 10.0 mi WSW 8.1 mph - N/A   Clear
5:53 PM 84.9 °F 30.9 °F 14% 29.78 in 10.0 mi Calm Calm - N/A   Clear
6:53 PM 84.0 °F 30.9 °F 15% 29.77 in 10.0 mi Calm Calm - N/A   Clear
7:53 PM 82.0 °F 30.9 °F 16% 29.77 in 10.0 mi SSW 6.9 mph - N/A   Clear
8:53 PM 71.1 °F 35.1 °F 27% 29.78 in 10.0 mi Calm Calm - N/A   Clear
9:53 PM 64.9 °F 37.9 °F 37% 29.80 in 10.0 mi Calm Calm - N/A   Clear
10:53 PM 63.0 °F 43.0 °F 48% 29.80 in 10.0 mi NNE 3.5 mph - N/A   Clear
11:53 PM 66.0 °F 37.9 °F 36% 29.81 in 10.0 mi Calm Calm - N/A   Clear